Home > Weather > Romania > Oradea > Past weeks

Flag for Romania Weather past 2 weeks in Oradea, Romania

36 °F

Passing clouds.

Feels Like: 32 °F
Forecast: 39 / 45 °F
Wind: 5 mph from East

Location: Oradea Airport

Current Time: Dec 2, 2015 at 2:25:04 AM

Latest Report: Dec 2, 2015 at 1:00 AM

Visibility: 4 mi

Pressure: 30.21 "Hg

Humidity: 87%

Dew point: 32 °F

Location of OradeaLocation

Historic Weather in Oradea — Graph


Oradea temperature yesterday

Maximum temperature yesterday: 52 °F (at 1:00 PM)
Minimum temperature yesterday: 37 °F (at 10:00 PM)
Average temperature yesterday: 46 °F

Past Weeks' High & Low Weather Summary

High61 °F (Nov 17, 2:00 PM)100% (Nov 21, 11:30 AM)30.33 "Hg (Nov 21, 11:30 AM)
Low34 °F (Nov 23, 8:30 PM)59% (Nov 20, 12:00 AM)29.27 "Hg (Nov 21, 10:00 PM)
Average45 °F86%29.92 "Hg
* Reported Midnight between Nov 16 and Nov 17 — Midnight between Dec 1 and Dec 2, Oradea, Weather by CustomWeather, © 2015

Note: Actual official high and low records may vary slightly from our data, if they occured in-between our weather recording intervals... More about our weather records


Oradea weather history for previous 24 hours

Time TempWeatherWind HumidityBarometerVisibility
12:00 AM
Wed, Dec 2
36 °FOvercast.2 mph87%30.18 "Hg6 mi
11:00 PM
Tue, Dec 1
37 °FFog.2 mph81%30.18 "Hg3 mi
10:30 PM37 °FPassing clouds.3 mph81%30.18 "Hg4 mi
10:00 PM37 °FPassing clouds.5 mph81%30.15 "HgN/A
9:30 PM39 °FChilly.3 mph81%30.15 "HgN/A
9:00 PM43 °FPassing clouds.2 mph66%30.15 "HgN/A
8:30 PM43 °FClear.5 mph66%30.12 "Hg10 mi
8:00 PM45 °FClear.5 mph66%30.12 "Hg10 mi
7:30 PM45 °FClear.5 mph76%30.12 "Hg10 mi
7:00 PM45 °FClear.3 mph81%30.09 "Hg10 mi
6:30 PM46 °FClear.8 mph76%30.07 "Hg10 mi
6:00 PM46 °FClear.10 mph82%30.07 "Hg10 mi
5:30 PM48 °FClear.13 mph82%30.07 "Hg10 mi
5:00 PM50 °FClear.14 mph76%30.04 "Hg10 mi
4:30 PM50 °FSunny.14 mph76%30.04 "Hg10 mi
4:00 PM52 °FPassing clouds.14 mph77%30.01 "HgN/A
3:30 PM52 °FPassing clouds.14 mph77%30.01 "HgN/A
3:00 PM52 °FPartly sunny.14 mph77%30.01 "HgN/A
2:30 PM52 °FPartly sunny.17 mph77%29.98 "HgN/A
2:00 PM52 °FPartly sunny.17 mph77%29.98 "HgN/A
1:30 PM52 °FPartly sunny.18 mph77%29.98 "HgN/A
1:00 PM52 °FPartly sunny.17 mph72%29.98 "HgN/A
12:30 PM50 °FOvercast.20 mph82%29.98 "HgN/A
12:00 PM50 °FPartly sunny.18 mph82%29.98 "HgN/A
11:30 AM50 °FPartly sunny.17 mph76%29.98 "HgN/A
11:00 AM46 °FPassing clouds.18 mph87%29.98 "HgN/A
10:30 AM46 °FSunny.20 mph82%29.98 "Hg10 mi
9:30 AM45 °FPartly sunny.23 mph81%29.98 "HgN/A
9:00 AM45 °FBroken clouds.23 mph81%29.98 "HgN/A
8:30 AM45 °FMostly cloudy.25 mph81%29.98 "HgN/A
8:00 AM45 °FOvercast.24 mph87%29.98 "HgN/A
7:30 AM45 °FPassing clouds.24 mph87%29.98 "HgN/A
7:00 AM45 °FLight rain. Passing clouds.22 mph87%30.01 "HgN/A
6:30 AM45 °FLight rain. Passing clouds.21 mph87%30.01 "Hg5 mi
6:00 AM45 °FRain. Passing clouds.22 mph87%30.01 "Hg4 mi
5:30 AM45 °FLight rain. Mostly cloudy.23 mph93%30.01 "Hg6 mi
5:00 AM45 °FLight rain. Overcast.20 mph93%30.01 "HgN/A
4:30 AMN/ALight rain.18 mphN/A30.01 "Hg6 mi
4:00 AM45 °FLight rain. Overcast.20 mph93%30.01 "Hg5 mi
2:00 AM45 °FLight rain. Overcast.20 mph87%30.04 "HgN/A
Weather by CustomWeather, © 2015

See weather overviewHow to use our weather pages